Location: Quesnel
(52.9830°N, 122.4830°W)
Time: 09:04:11
(UTC-07:00)

ISS - All Passes

Search period start: 29 August 2014 00:00
Search period end: 08 September 2014 00:00
Orbit: 414 x 419 km, 51.6° (Epoch: 29 August)

Date Brightness Start Highest point End Pass type
(mag) Time Alt. Az. Time Alt. Az. Time Alt. Az.
29 Aug - 11:34:44 10° SSE 11:36:14 13° SE 11:37:44 10° ESE daylight
29 Aug - 13:09:11 10° SW 13:12:20 41° SSE 13:15:30 10° E daylight
29 Aug - 14:45:34 10° W 14:48:53 71° S 14:52:13 10° E daylight
29 Aug - 16:22:15 10° W 16:25:29 46° SSW 16:28:41 10° SE daylight
29 Aug - 17:59:41 10° WSW 18:01:39 15° SW 18:03:37 10° S daylight
30 Aug - 12:20:57 10° SW 12:23:57 31° SSE 12:26:57 10° E daylight
30 Aug - 13:57:06 10° WSW 14:00:25 68° S 14:03:45 10° E daylight
30 Aug - 15:33:45 10° W 15:37:02 56° SSW 15:40:19 10° ESE daylight
30 Aug - 17:10:47 10° W 17:13:21 21° SSW 17:15:55 10° SSE daylight
31 Aug - 11:32:51 10° SSW 11:35:34 23° SSE 11:38:18 10° E daylight
31 Aug - 13:08:38 10° WSW 13:11:56 60° SSE 13:15:14 10° E daylight
31 Aug - 14:45:14 10° W 14:48:33 65° S 14:51:52 10° ESE daylight
31 Aug - 16:22:04 10° W 16:24:59 28° SSW 16:27:53 10° SSE daylight
01 Sep - 10:44:58 10° S 10:47:12 17° SE 10:49:27 10° ESE daylight
01 Sep - 12:20:11 10° WSW 12:23:26 50° SSE 12:26:41 10° E daylight
01 Sep - 13:56:42 10° W 14:00:01 71° S 14:03:21 10° E daylight
01 Sep - 15:33:26 10° W 15:36:33 37° SSW 15:39:39 10° SE daylight
01 Sep - 17:11:45 10° SW 17:12:35 11° SW 17:13:24 10° SSW daylight
02 Sep - 09:57:34 10° SSE 09:58:51 12° SE 10:00:09 10° ESE daylight
02 Sep - 11:31:47 10° SW 11:34:55 39° SSE 11:38:04 10° E daylight
02 Sep - 13:08:08 10° W 13:11:28 71° S 13:14:47 10° E daylight
02 Sep - 14:44:49 10° W 14:48:03 47° SSW 14:51:16 10° ESE daylight
02 Sep - 16:22:09 10° WSW 16:24:14 16° SW 16:26:18 10° S daylight
03 Sep - 10:43:27 10° SW 10:46:25 30° SSE 10:49:23 10° E daylight
03 Sep - 12:19:33 10° WSW 12:22:52 67° S 12:26:11 10° E daylight
03 Sep - 13:56:11 10° W 13:59:29 58° SSW 14:02:46 10° ESE daylight
03 Sep - 15:33:10 10° W 15:35:48 22° SSW 15:38:26 10° SSE daylight
04 Sep - 09:55:16 10° SSW 09:57:55 22° SSE 10:00:35 10° E daylight
04 Sep - 11:30:58 10° WSW 11:34:15 59° SSE 11:37:33 10° E daylight
04 Sep - 13:07:33 10° W 13:10:52 66° S 13:14:11 10° ESE daylight
04 Sep - 14:44:21 10° W 14:47:18 29° SSW 14:50:15 10° SE daylight
05 Sep - 09:07:19 10° S 09:09:27 16° SE 09:11:35 10° ESE daylight
05 Sep - 10:42:24 10° WSW 10:45:38 48° SSE 10:48:52 10° E daylight
05 Sep - 12:18:53 10° W 12:22:13 71° S 12:25:33 10° E daylight
05 Sep - 13:55:36 10° W 13:58:45 39° SSW 14:01:52 10° SE daylight
05 Sep - 15:33:37 10° WSW 15:34:47 12° SW 15:35:58 10° SSW daylight
06 Sep - 08:19:59 10° SSE 08:20:59 11° SE 08:21:58 10° ESE daylight
06 Sep - 09:53:54 10° SW 09:57:01 38° SSE 10:00:08 10° E daylight
06 Sep - 11:30:12 10° W 11:33:32 71° S 11:36:51 10° E daylight
06 Sep - 13:06:52 10° W 13:10:07 49° SSW 13:13:21 10° ESE daylight
06 Sep - 14:44:07 10° WSW 14:46:19 17° SW 14:48:31 10° S daylight
07 Sep - 09:05:28 10° SSW 09:08:24 28° SSE 09:11:19 10° E daylight
07 Sep - 10:41:30 10° WSW 10:44:49 66° S 10:48:08 10° E daylight
07 Sep - 12:18:08 10° W 12:21:25 60° SSW 12:24:43 10° ESE daylight
07 Sep - 13:55:03 10° W 13:57:46 23° SSW 14:00:27 10° SSE daylight
